Stations météo

réclame
Mon MeteoGroup
Ploumanach, France (7117): Température de l'air & dewpoint: 13.08.2019 16:00:00 - 19.08.2019 16:00:00 (CEST)Ploumanach, France (7117): Vitesse du vent & gusts: 13.08.2019 16:00:00 - 19.08.2019 16:00:00 (CEST)Ploumanach, France (7117): Direction du vent: 13.08.2019 16:00:00 - 19.08.2019 16:00:00 (CEST)Ploumanach, France (7117): reduced air pressure: 13.08.2019 16:00:00 - 19.08.2019 16:00:00 (CEST)Ploumanach, France (7117): visibility: 13.08.2019 16:00:00 - 19.08.2019 16:00:00 (CEST)Ploumanach, France (7117): Quantités de précipitations: 13.08.2019 16:00:00 - 19.08.2019 16:00:00 (CEST)
Date & Time tt [°C] td [°C] ff [km/h] ff [knt] fx [km/h] fx [knt] dd ppp [hPa] vv [km] rr [mm]
19.08.2019 16:00:00 19,6 12,8 22 12 41 22 W 1020,0 - 0,0
19.08.2019 15:00:00 19,8 12,3 23 13 41 22 W 1020,0 - 0,0
19.08.2019 14:00:00 18,8 10,9 21 12 37 20 W 1019,7 18 0,0
19.08.2019 13:00:00 19,0 12,7 23 12 36 19 W 1019,4 - 0,0
19.08.2019 12:00:00 18,2 12,4 20 11 33 18 WSW 1019,1 - 0,0
19.08.2019 11:00:00 16,8 13,3 19 10 33 18 WSW 1018,5 18 0,0
19.08.2019 10:00:00 16,7 13,8 15 8 29 16 SW 1017,9 - 0,0
19.08.2019 09:00:00 15,3 13,0 18 10 31 17 SW 1017,6 - 0,0
19.08.2019 08:00:00 13,8 12,5 14 8 25 14 SW 1017,2 15 0,0
19.08.2019 07:00:00 13,5 12,4 14 8 25 13 SW 1016,6 - 0,0
19.08.2019 06:00:00 13,5 12,4 16 9 25 13 SW 1016,1 - 0,0
19.08.2019 05:00:00 14,0 12,4 15 8 26 14 SW 1015,8 - 0,0
19.08.2019 04:00:00 14,4 12,3 17 9 29 16 SW 1015,7 - 0,0
19.08.2019 03:00:00 14,6 12,6 18 10 34 18 SW 1015,5 - 0,0
19.08.2019 02:00:00 14,5 12,4 19 10 29 16 SW 1015,6 - 0,0
19.08.2019 01:00:00 14,7 12,6 17 9 33 18 SW 1015,3 - 0,0
19.08.2019 00:00:00 15,3 12,6 18 10 31 17 SW 1014,8 - 0,0
18.08.2019 23:00:00 15,7 12,4 17 9 32 18 SW 1014,6 - 0,0
18.08.2019 22:00:00 16,2 12,4 22 12 44 24 WSW 1014,0 - 0,0
18.08.2019 21:00:00 16,0 12,2 23 12 42 23 WSW 1013,3 - 0,0
18.08.2019 20:00:00 17,3 13,0 24 13 46 25 WSW 1012,8 20 0,0
18.08.2019 19:00:00 18,8 13,2 26 14 47 25 W 1012,5 - 0,0
18.08.2019 18:00:00 18,9 13,3 31 17 58 31 W 1012,3 - 0,0
18.08.2019 17:00:00 19,3 12,6 29 16 52 28 W 1011,9 20 0,0
18.08.2019 16:00:00 19,1 12,1 30 16 57 31 WSW 1011,8 - 0,0
18.08.2019 15:00:00 19,3 13,0 28 15 51 28 W 1011,4 - 0,0
18.08.2019 14:00:00 19,1 13,1 28 15 45 25 WSW 1010,7 20 0,0
18.08.2019 13:00:00 18,7 13,1 25 13 45 24 W 1010,4 - 0,0
18.08.2019 12:00:00 18,1 13,4 25 14 46 25 W 1009,9 - 0,0
18.08.2019 11:00:00 17,4 13,9 19 10 42 23 WSW 1009,1 - 0,0
18.08.2019 10:00:00 17,1 13,6 21 12 33 18 WSW 1008,3 - 0,0
18.08.2019 09:00:00 16,0 14,4 16 9 33 18 WSW 1007,5 - 0,0
18.08.2019 08:00:00 15,1 14,3 19 11 32 17 W 1006,6 15 0,0
18.08.2019 07:00:00 14,7 13,9 20 11 40 22 W 1005,8 - 0,0
18.08.2019 06:00:00 14,7 14,2 14 8 23 13 W 1005,3 - 0,0
18.08.2019 05:00:00 14,6 14,0 9 5 21 11 W 1005,0 - 0,0
18.08.2019 04:00:00 14,8 13,8 15 8 56 30 W 1004,6 - 0,0
18.08.2019 03:00:00 14,2 13,6 19 11 34 18 SE 1003,4 - 0,4
18.08.2019 02:00:00 14,4 14,1 5 3 16 9 S 1005,8 - 1,2
18.08.2019 01:00:00 14,5 14,2 13 7 21 12 S 1006,7 - 1,2
18.08.2019 00:00:00 14,9 14,4 14 7 23 13 SW 1007,3 - 2,0
17.08.2019 23:00:00 15,5 14,2 9 5 17 9 SSW 1007,8 - 0,0
17.08.2019 22:00:00 16,1 14,1 7 4 18 10 S 1007,6 - 0,2
17.08.2019 21:00:00 17,0 13,9 9 5 26 14 SW 1008,3 - 0,0
17.08.2019 20:00:00 17,7 14,0 17 9 29 16 SW 1008,6 15 0,0
17.08.2019 19:00:00 17,7 15,0 10 5 26 14 WSW 1009,0 - 0,0
17.08.2019 18:00:00 17,9 15,2 13 7 31 17 WSW 1009,2 - 0,0
17.08.2019 17:00:00 18,3 15,2 16 9 31 17 WSW 1009,1 8 0,0
17.08.2019 16:00:00 19,0 15,3 17 9 32 18 W 1009,3 - 0,0
17.08.2019 15:00:00 18,0 14,7 20 11 37 20 W 1009,4 - 0,0
17.08.2019 14:00:00 19,1 15,4 17 9 32 17 WSW 1009,3 10 0,0
17.08.2019 13:00:00 18,3 15,4 18 10 37 20 WSW 1009,2 - 0,0
17.08.2019 12:00:00 18,6 15,5 18 10 34 18 WSW 1008,9 - 0,0
17.08.2019 11:00:00 16,9 15,2 13 7 28 15 SW 1008,8 12 0,0
17.08.2019 10:00:00 16,6 15,3 16 9 27 15 WSW 1009,0 - 0,0
17.08.2019 09:00:00 16,2 15,4 14 7 28 15 WSW 1008,5 - 0,0
17.08.2019 08:00:00 15,8 15,3 15 8 32 17 WSW 1008,2 12 0,0
17.08.2019 07:00:00 16,1 15,9 19 11 34 18 WSW 1007,8 - 0,2
17.08.2019 06:00:00 16,2 16,0 24 13 41 22 W 1007,8 - 1,0
17.08.2019 05:00:00 17,8 17,5 19 11 41 22 WSW 1007,3 - 0,0
17.08.2019 04:00:00 17,9 17,6 21 11 36 19 SW 1007,5 - 0,2
17.08.2019 03:00:00 18,0 17,5 21 11 47 26 SW 1007,7 - 0,0
17.08.2019 02:00:00 17,9 17,6 22 12 40 21 SW 1007,8 - 0,2
17.08.2019 01:00:00 17,8 17,2 22 12 44 24 SW 1007,9 - 0,0
17.08.2019 00:00:00 17,8 17,0 26 14 42 23 SW 1008,4 - 0,0
16.08.2019 23:00:00 17,8 17,3 22 12 41 22 SW 1008,3 - 0,2
16.08.2019 22:00:00 17,5 17,0 20 11 39 21 SW 1008,6 - 0,4
16.08.2019 21:00:00 17,5 16,5 23 12 46 25 SSW 1008,8 - 0,2
16.08.2019 20:00:00 17,3 16,3 22 12 42 23 SSW 1009,1 6 0,4
16.08.2019 19:00:00 17,5 15,8 24 13 50 27 SSW 1009,7 - 0,4
16.08.2019 18:00:00 18,6 15,3 24 13 56 30 SSW 1010,5 - 0,0
16.08.2019 17:00:00 19,0 14,7 29 16 55 30 SSW 1011,3 15 0,0
16.08.2019 16:00:00 19,9 14,3 26 14 56 30 SSW 1011,7 - 0,0
16.08.2019 15:00:00 19,5 13,9 25 14 55 30 SSW 1012,2 - 0,0
16.08.2019 14:00:00 20,5 14,2 25 13 - - SSW 1012,8 - -
16.08.2019 13:00:00 20,3 14,4 - - - - - 1013,6 - 0,0
16.08.2019 12:00:00 19,1 13,7 - - - - - 1014,0 - 0,0
16.08.2019 11:00:00 18,3 13,4 - - - - - 1014,9 15 0,0
16.08.2019 10:00:00 17,7 13,8 - - - - - 1015,5 - 0,0
16.08.2019 09:00:00 16,1 13,9 - - - - - 1016,0 - 0,0
16.08.2019 08:00:00 14,4 13,3 - - - - - 1016,8 12 0,0
16.08.2019 07:00:00 14,9 12,9 - - - - - 1016,9 - 0,0
16.08.2019 06:00:00 14,3 13,0 - - - - - 1017,7 - 0,0
16.08.2019 05:00:00 14,0 13,0 - - - - - 1018,4 - 0,0
16.08.2019 04:00:00 14,3 13,3 - - - - - 1019,0 - 0,0
16.08.2019 03:00:00 14,7 13,9 - - - - - 1019,0 - 0,0
16.08.2019 02:00:00 15,2 13,9 - - - - - 1019,9 - 0,0
16.08.2019 01:00:00 16,5 14,1 - - - - - 1020,2 - 0,0
16.08.2019 00:00:00 16,5 14,5 - - - - - 1020,6 - 0,0
15.08.2019 23:00:00 16,6 14,4 - - - - - 1020,8 - 0,0
15.08.2019 22:00:00 16,1 13,9 - - - - - 1020,6 - 0,0
15.08.2019 21:00:00 16,9 13,8 - - - - - 1020,5 - 0,0
15.08.2019 20:00:00 18,5 14,6 - - - - - 1020,5 12 0,0
15.08.2019 19:00:00 17,9 14,4 - - - - - 1020,6 - 0,0
15.08.2019 18:00:00 19,7 15,1 - - - - - 1020,2 - 0,0
15.08.2019 17:00:00 19,7 14,9 - - - - - 1020,0 12 0,0
15.08.2019 16:00:00 19,2 15,1 - - - - - 1020,3 - 0,0
15.08.2019 15:00:00 20,0 15,6 - - - - - 1019,9 - 0,0
15.08.2019 14:00:00 20,0 15,4 - - - - - 1019,7 12 0,0
15.08.2019 13:00:00 18,5 15,0 - - - - - 1019,6 - 0,0
15.08.2019 12:00:00 17,3 14,9 - - - - - 1019,2 - 0,0
15.08.2019 11:00:00 17,0 14,8 - - 90 49 WSW 1018,5 10 0,0
15.08.2019 10:00:00 16,8 14,6 247 133 92 50 W 1018,1 - 0,0
15.08.2019 09:00:00 16,6 14,8 23 12 92 50 W 1017,6 - 0,0
15.08.2019 08:00:00 16,4 15,1 - - 90 49 WSW 1017,0 6 0,0
15.08.2019 07:00:00 16,2 14,9 39 21 92 50 W 1016,6 - 0,0
15.08.2019 06:00:00 16,1 15,0 94 51 92 50 WSW 1016,0 - 0,0
15.08.2019 05:00:00 15,6 14,6 - - 92 50 WSW 1015,9 - 0,0
15.08.2019 04:00:00 15,7 14,6 191 103 90 49 WSW 1015,9 - 0,0
15.08.2019 03:00:00 16,0 14,9 135 73 92 50 W 1015,6 - 0,0
15.08.2019 02:00:00 16,2 14,9 12 6 90 49 W 1015,7 - 0,0
15.08.2019 01:00:00 16,2 15,1 - - 85 46 WSW 1015,5 - 0,0
15.08.2019 00:00:00 16,2 15,7 21 11 43 23 WSW 1014,9 - 0,2
14.08.2019 23:00:00 16,6 16,0 23 12 41 22 WSW 1014,6 - 0,0
14.08.2019 22:00:00 16,8 16,0 23 13 45 24 WSW 1014,1 - 0,0
14.08.2019 21:00:00 16,9 16,3 26 14 51 28 WSW 1013,4 - 0,0
14.08.2019 20:00:00 17,7 16,2 26 14 47 25 WSW 1013,0 1,5 0,0
14.08.2019 19:00:00 18,1 16,4 25 13 46 25 WSW 1013,0 - 0,0
14.08.2019 18:00:00 17,8 17,2 27 15 51 28 WSW 1012,9 - 0,2
14.08.2019 17:00:00 18,1 17,8 27 15 46 25 WSW 1012,7 1,5 1,2
14.08.2019 16:00:00 19,1 18,1 17 9 47 25 WSW 1012,7 - 0,2
14.08.2019 15:00:00 20,7 16,1 29 16 59 32 SW 1012,5 - 0,0
14.08.2019 14:00:00 20,2 15,4 33 18 59 32 SSW 1012,8 20 0,0
14.08.2019 13:00:00 18,9 14,6 29 16 57 31 SSW 1013,0 - 0,0
14.08.2019 12:00:00 17,8 13,9 28 15 51 28 SSW 1013,6 - 0,0
14.08.2019 11:00:00 17,4 12,5 26 14 49 26 SSW 1014,0 - 0,0
14.08.2019 10:00:00 17,0 13,5 20 11 42 23 SSW 1014,5 - 0,0
14.08.2019 09:00:00 16,9 13,2 20 11 41 22 SSW 1014,7 - 0,0
14.08.2019 08:00:00 16,2 13,5 16 9 34 18 SSW 1015,1 18 0,0
14.08.2019 07:00:00 15,9 13,4 17 9 31 17 SSW 1015,7 - 0,0
14.08.2019 06:00:00 15,7 13,4 13 7 26 14 SSW 1016,5 - 0,0
14.08.2019 05:00:00 15,6 13,3 14 7 27 14 SSW 1017,1 - 0,0
14.08.2019 04:00:00 15,4 13,1 14 8 28 15 SSW 1017,8 - 0,0
14.08.2019 03:00:00 15,0 13,2 11 6 26 14 S 1018,3 - 0,0
14.08.2019 02:00:00 15,0 13,0 14 7 25 13 SSW 1019,1 - 0,0
14.08.2019 01:00:00 14,9 12,9 14 7 21 12 SSW 1019,6 - 0,0
14.08.2019 00:00:00 14,7 12,7 11 6 18 10 SSW 1020,1 - 0,0
13.08.2019 23:00:00 15,2 13,4 9 5 13 7 SSW 1020,1 - 0,0
13.08.2019 22:00:00 15,9 13,4 10 5 22 12 SW 1020,3 - 0,0
13.08.2019 21:00:00 16,4 14,1 14 8 31 17 W 1020,3 - 0,0
13.08.2019 20:00:00 17,2 14,3 18 10 37 20 W 1020,2 20 0,0
13.08.2019 19:00:00 19,1 14,4 22 12 42 23 W 1020,1 - 0,0
13.08.2019 18:00:00 19,7 14,7 21 11 41 22 W 1020,2 - 0,0
13.08.2019 17:00:00 19,2 14,9 25 13 44 24 W 1020,2 18 0,0
13.08.2019 16:00:00 19,7 14,9 23 12 37 20 W 1020,4 - 0,0

tt = Température de l'air
td = dewpoint
ff = Vitesse du vent
fx = gusts
dd = Direction du vent
ppp = reduced air pressure
vv = visibility
rr = Quantités de précipitations

stations d'obs. à proximité